Regional Weather Roundup
Issued by NWS

Home | Current Version | Previous Version | Graphics & Text | Print | Product List | Glossary On
Versions: 1 2 3 4 5 6 7 8 9 10 11 12 13 14 15 16 17 18 19 20 21 22 23 24 25 26 27 28 29 30 31 32 33 34 35 36 37 38 39 40 41 42 43 44 45 46 47 48 49 50
000
ASUS44 KMEG 271800
RWRTN
TENNESSEE HOURLY STATE WEATHER ROUNDUP
NATIONAL WEATHER SERVICE MEMPHIS TN
100 PM CDT FRI MAY 27 2016

TNZ002-004-019-021-049-052-054-088>092-271900-
WEST TENNESSEE

CITY           SKY/WX    TMP DP  RH WIND       PRES   REMARKS
MEMPHIS INTL   CLOUDY    80  66  62 S16G24    29.93F
NWS MEMPHIS      N/A     81 N/A N/A MISG        N/A
JACKSON        CLOUDY    78  68  71 S12G17    29.96F
DYERSBURG      CLOUDY    81  66  61 S13G21    29.92F
PARIS          SUNNY     81  66  61 S13       29.97F
LEXINGTON      SUNNY     82  61  47 S16       29.99S
$$

TNZ008-025-027-028-033-062-065-066-271900-
NORTH MIDDLE TENNESSEE

CITY           SKY/WX    TMP DP  RH WIND       PRES   REMARKS
NASHVILLE      PTSUNNY   87  61  41 SW14G21   30.01F
CLARKSVILLE    CLOUDY    82  66  58 SW13G20   29.99F
COOKEVILLE     MOSUNNY   84  70  61 SW6       30.05F
CROSSVILLE     MOSUNNY   80  64  58 VRB6      30.12F
$$

TNZ061-075-076-078-094-096-097-271900-
SOUTH MIDDLE TENNESSEE

CITY           SKY/WX    TMP DP  RH WIND       PRES   REMARKS
TULLAHOMA      MOSUNNY   82  63  51 S12       30.07F
WINCHESTER     MOSUNNY   88  63  42 SW12      30.06F
MCMINNVILLE    SUNNY     88  66  48 SW9       30.06F HX  90
COLUMBIA       SUNNY     82  70  65 S9        30.01F
SHELBYVILLE    MOSUNNY   88  64  45 S15       30.05F
$$

TNZ017-018-042-046-047-271900-
NORTHEAST TENNESSEE

CITY           SKY/WX    TMP DP  RH WIND       PRES   REMARKS
TRI CITIES     MOSUNNY   85  62  46 N5        30.11F
$$

TNZ012-013-036-069-073-074-271900-
CENTRAL EAST TENNESSEE

CITY           SKY/WX    TMP DP  RH WIND       PRES   REMARKS
KNOXVILLE      PTSUNNY   83  64  52 W12       30.06F
OAK RIDGE      MOSUNNY   85  63  47 VRB5      30.08F
GATLINBURG       N/A     82  63  51 VRB3      30.08F
$$

TNZ083-085-099-271900-
SOUTHEAST TENNESSEE

CITY           SKY/WX    TMP DP  RH WIND       PRES   REMARKS
CHATTANOOGA    PTSUNNY   86  64  47 S8        30.06F
$$

SKY/WX REPORTED AS FAIR MEANS FEW OR NO CLOUDS BELOW
12 THOUSAND FEET.





USA.gov is the U.S. government's official web portal to all federal, state and local government web resources and services.